Regional Weather Roundup
Issued by NWS Cleveland, OH

Home | Current Version | Previous Version | Graphics & Text | Print | Product List | Glossary On
Versions: 1 2 3 4 5 6 7 8 9 10 11 12 13 14 15 16 17 18 19 20 21 22 23 24 25 26 27 28 29 30 31 32 33 34 35 36 37 38 39 40 41 42 43 44 45 46 47 48 49 50
000
ASUS41 KCLE 250802
RWRCLE
OHIO REGIONAL WEATHER ROUNDUP
NATIONAL WEATHER SERVICE CLEVELAND, OH
400 AM EDT TUE APR 25 2017

NOTE: "FAIR" INDICATES FEW OR NO CLOUDS BELOW 12,000 FEET WITH NO
SIGNIFICANT WEATHER AND/OR OBSTRUCTIONS TO VISIBILITY.

OHZ001>008-015>018-024>027-034-035-043-044-250900-
   NORTHWEST OHIO

CITY           SKY/WX    TMP DP  RH WIND       PRES   REMARKS
DEFIANCE       CLEAR     49  44  83 CALM      29.83F
FINDLAY        CLOUDY    56  45  66 SE6       29.82S
TOLEDO EXPRESS CLEAR     50  47  89 E5        29.84S
TOLEDO EXEC    CLOUDY    53  48  83 E6        29.85S
LIMA           PTCLDY    52  47  83 SE9       29.81F
$$

OHZ009>014-019>023-028>033-038-089-250900-
   NORTHEAST OHIO

CITY           SKY/WX    TMP DP  RH WIND       PRES   REMARKS
CLE-HOPKINS    CLOUDY    58  43  57 SE8       29.88F
CLE-LAKEFRONT  CLOUDY    58  44  60 SE12G18   29.86F
CUY CO. ARPT   NOT AVBL
LORAIN-ELYRIA  CLOUDY    55  43  63 SE13      29.86F
ASHTABULA      CLOUDY    56  43  61 SE7       29.91F
AKRON-CANTON   CLOUDY    55  43  63 SE9       29.88S
WOOSTER        CLOUDY    53  45  74 SE10      29.87F
MANSFIELD      CLOUDY    53  45  74 SE14      29.85F
YOUNGSTOWN     CLOUDY    53  40  61 SE10      29.90F
$$

OHZ042-051>053-060>062-070>072-077>081-250900-
  SOUTHWEST OHIO

CITY           SKY/WX    TMP DP  RH WIND       PRES   REMARKS
CINC-COVINGTON PTCLDY    55  51  86 E8        29.78F
CINC-LUNKEN    CLEAR     51  51 100 E3        29.80F
HAMILTON       CLEAR     50  49  96 CALM      29.80F
DAYTON         PTCLDY    51  47  86 E8        29.80F
WRIGHT-PAT AFB CLEAR     52  49  90 E6        29.80F
DAYTON GENERAL CLEAR     52  47  83 E8        29.79F
WILMINGTON     CLOUDY    52  49  89 E7        29.79F
$$

OHZ036-037-039>041-045>050-054>059-063>069-073>076-082>088-250900-
  CENTRAL AND SOUTHEAST OHIO

CITY           SKY/WX    TMP DP  RH WIND       PRES   REMARKS
COLUMBUS       CLOUDY    55  48  77 E8        29.82F
OSU AIRPORT    CLOUDY    54  48  80 E6        29.82F
BOLTON FIELD   CLOUDY    54  47  77 E7        29.83S
RICKENBACK AFB CLOUDY    53  48  82 E6        29.82S
NEWARK         CLOUDY    54  46  74 E7        29.83F
MARION         MOCLDY    54  45  71 SE12      29.84S
LANCASTER      CLOUDY    55  47  74 E5        29.83F
ZANESVILLE     PTCLDY    54  46  74 E7        29.84S
NEW PHILLY     NOT AVBL
$$




USA.gov is the U.S. government's official web portal to all federal, state and local government web resources and services.